Location: Nairn
(57.5833°N, 3.8667°W)
Time: 20:12:41
(UTC+00:00)

S-56A Canister/Altair - Pass Details

Date: 06 October 2022
Orbit: 638 x 2494 km, 38.9° (Epoch: 05 December)

Event Time Altitude Azimuth Distance (km) Brightness Sun altitude
Exits shadow 03:59:38 20° 205° (SSW) 2,821 10.0 -20.5°
Maximum altitude 04:00:17 20° 200° (SSW) 2,761 10.0 -20.4°
Drops below altitude 10° 04:05:23 10° 156° (SSE) 3,008 10.6 -19.8°
Sets 04:08:30 0° 139° (SE) 3,697 11.3 -19.4°
